Location: Newark
(48.4317°S, 179.1125°W)
Time: 00:25:23
(UTC+00:00)

N. Korean satellite - Pass Details

Date: 01 February 2020
Orbit: 456 x 506 km, 97.2° (Epoch: 16 February)

Event Time Altitude Azimuth Distance (km) Brightness Sun altitude
Rises 15:42:53 0° 53° (NE) 2,615 10.5 -9.2°
Reaches altitude 10° 15:45:26 10° 71° (ENE) 1,735 9.8 -8.8°
Maximum altitude 15:48:03 18° 116° (ESE) 1,296 10.0 -8.5°
Drops below altitude 10° 15:50:40 10° 160° (SSE) 1,739 10.4 -8.2°
Sets 15:53:14 0° 178° (S) 2,624 10.9 -7.8°
